Weather History for Wautoma, WI

Change the Weather History Date:

Friday, June 7, 2013

  Actual Average (KPCZ) Record (KPCZ)
Temperature  
Mean Temperature 56 °F -  
Max Temperature 68 °F 78 °F 96 °F (2011)
Min Temperature 47 °F 53 °F 41 °F (1953)
Degree Days  
Heating Degree Days 8    
Growing Degree Days 6 (Base 50)    
Moisture  
Dew Point 49 °F    
Average Humidity 74    
Maximum Humidity 97    
Minimum Humidity 49    
Precipitation  
Precipitation 0.00 in - - ()
Sea Level Pressure  
Sea Level Pressure 29.97 in    
Wind  
Wind Speed 4 mph (NNE)    
Max Wind Speed 9 mph    
Max Gust Speed -    
Visibility 10 miles    
Events      
Averages and records for this station are not official NWS values.
T = Trace of Precipitation, MM = Missing Value Source: NWS Daily Summary

Daily Weather History Graph

Daily Weather History Graph

Search for Another Location

Airport:

Trip Planner

Search our weather history database for the weather conditions in past years. The results will help you decide how hot, cold, wet, or windy it might be!

Date:

Astronomy

Jun. 07, 2013 Rise Set
Actual Time 5:14 AM CDT 8:37 PM CDT
Civil Twilight 4:38 AM CDT 9:13 PM CDT
Nautical Twilight 3:51 AM CDT 10:00 PM CDT
Astronomical Twilight 2:53 AM CDT 11:00 PM CDT
Moon 4:39 AM CDT (6/7) 7:49 PM CDT (6/7)
Length of Visible Light 16h 35m
Length of Day
15h 23m
Waning Crescent, 1% of the Moon is Illuminated
Jun 7
Waning Crescent
Jun 8
New
Jun 16
First Quarter
Jun 23
Full
Jun 29
Last Quarter

Hourly Weather History & Observations

Time (CDT) Temp. Dew Point Humidity Pressure Visibility Wind Dir Wind Speed Gust Speed Precip Events Conditions
12:56 AM 50.0 °F 48.2 °F 94% 29.99 in 10.0 mi NNW 4.6 mph - N/A   Overcast
1:56 AM 50.0 °F 45.9 °F 86% 29.99 in 10.0 mi NW 3.5 mph - N/A   Overcast
2:56 AM 50.0 °F 45.9 °F 86% 29.98 in 10.0 mi NNE 3.5 mph - N/A   Overcast
3:56 AM 50.0 °F 45.9 °F 86% 29.98 in 10.0 mi NNE 5.8 mph - N/A   Overcast
4:56 AM 47.8 °F 45.0 °F 90% 29.98 in 10.0 mi North 4.6 mph - N/A   Partly Cloudy
5:56 AM 48.9 °F 43.0 °F 80% 29.99 in 10.0 mi North 6.9 mph - N/A   Mostly Cloudy
6:56 AM 50.9 °F 43.9 °F 77% 30.00 in 10.0 mi NNE 6.9 mph - N/A   Mostly Cloudy
7:56 AM 52.0 °F 45.0 °F 77% 30.01 in 10.0 mi NNE 9.2 mph - N/A   Scattered Clouds
8:56 AM 54.9 °F 45.9 °F 72% 30.02 in 10.0 mi Calm Calm - N/A   Scattered Clouds
9:56 AM 57.9 °F 46.9 °F 67% 30.01 in 10.0 mi NE 3.5 mph - N/A   Mostly Cloudy
10:56 AM 61.0 °F 47.8 °F 62% 30.01 in 10.0 mi Calm Calm - N/A   Partly Cloudy
11:56 AM 63.0 °F 50.0 °F 63% 30.00 in 10.0 mi ENE 5.8 mph - N/A   Clear
12:56 PM 63.9 °F 48.9 °F 58% 29.98 in 10.0 mi Variable 3.5 mph - N/A   Scattered Clouds
1:56 PM 65.8 °F 46.9 °F 50% 29.97 in 10.0 mi ENE 6.9 mph - N/A   Mostly Cloudy
2:56 PM 66.9 °F 46.9 °F 49% 29.96 in 10.0 mi South 5.8 mph - N/A   Mostly Cloudy
3:56 PM 66.9 °F 46.9 °F 49% 29.96 in 10.0 mi South 3.5 mph - N/A   Mostly Cloudy
4:56 PM 64.9 °F 50.0 °F 58% 29.95 in 10.0 mi North 6.9 mph - N/A   Mostly Cloudy
5:56 PM 63.0 °F 50.9 °F 65% 29.94 in 10.0 mi North 5.8 mph - N/A   Overcast
6:56 PM 61.9 °F 52.9 °F 72% 29.94 in 10.0 mi North 4.6 mph - N/A   Mostly Cloudy
7:56 PM 61.9 °F 52.9 °F 72% 29.94 in 10.0 mi Calm Calm - N/A   Mostly Cloudy
8:56 PM 59.0 °F 55.9 °F 90% 29.94 in 10.0 mi Calm Calm - N/A   Overcast
9:56 PM 57.2 °F 53.6 °F 88% 29.95 in 10.0 mi Calm Calm - N/A   Mostly Cloudy
10:56 PM 55.9 °F 54.0 °F 93% 29.95 in 10.0 mi Calm Calm - N/A   Overcast
11:56 PM 54.9 °F 54.0 °F 97% 29.95 in 10.0 mi Calm Calm - N/A   Overcast